Regional Weather Roundup
Issued by NWS

Home | Current Version | Previous Version | Text Only | Print | Product List | Glossary Off
Versions: 1 2 3 4 5 6 7 8 9 10 11 12 13 14 15 16 17 18 19 20 21 22 23 24 25 26 27

000
ASUS45 KCYS 280510
RWRWY

WYOMING REGIONAL WEATHER ROUNDUP
NATIONAL WEATHER SERVICE CHEYENNE WY
1100 PM MDT TUE JUN 27 2017

NOTE:  "FAIR" INDICATES FEW OR NO CLOUDS BELOW 12,000 FEET
WITH NO SIGNIFICANT WEATHER AND/OR OBSTRUCTIONS TO VISIBILITY.

WYZ001-280600-
YELLOWSTONE NATIONAL PARK

CITY           SKY/WX    TMP DP  RH WIND       PRES   REMARKS
LK YELLOWSTONE   N/A     42  42 100 CALM      30.15R
W YELLOWSTONE  NOT AVBL

$$
WYZ002>013-054>058-071-098>099-280600-
NORTHERN WYOMING

CITY           SKY/WX    TMP DP  RH WIND       PRES   REMARKS
JACKSON        FAIR      50  45  81 NE5       30.05S
CODY           FAIR      62  41  46 W12G18    29.93S
GREYBULL       FAIR      64  43  46 W3        29.86S
WORLAND        FAIR      57  44  62 E5        29.88F
SHERIDAN       FAIR      57  51  80 W9        29.88S
BUFFALO        FAIR      59  48  67 NW12      29.93S
GILLETTE         N/A     57  54  89 MISG      29.87R
NEWCASTLE      FAIR      59  46  63 NW7       29.86R

$$
WYZ014>020-022>026-101>103-280600-
CENTRAL WYOMING

CITY           SKY/WX    TMP DP  RH WIND       PRES   REMARKS
BIG PINEY      FAIR      50  40  68 NW3       30.08R
PINEDALE       FAIR      46  45  93 CALM      30.09R
DUBOIS         FAIR      48  37  66 W8        30.08S
LANDER         FAIR      58  42  55 S5        30.00S
RIVERTON       FAIR      59  38  45 W5        29.98R
CASPER         FAIR      53  41  63 W3        29.98R
DOUGLAS        FAIR      56  44  64 W5        29.93R

$$
WYZ021-027>030-104>119-280600-
SOUTHERN WYOMING

CITY           SKY/WX    TMP DP  RH WIND       PRES   REMARKS
EVANSTON       FAIR      63  34  33 N3        30.09R
KEMMERER         N/A     55  32  41 NW9       30.10S
FORT BRIDGER   FAIR      58  29  33 W5        30.11S
ROCK SPRINGS   FAIR      63  33  32 CALM      30.06R
DIXON          FAIR      55  43  64 NE5       30.06S
RAWLINS        FAIR      52  44  74 N6        30.07R
SARATOGA       FAIR      50  46  87 CALM      30.09R
LARAMIE        FAIR      54  42  64 N9        30.06R
CHEYENNE       FAIR      62  39  42 N7        29.97R
TORRINGTON     FAIR      63  44  50 N10       29.84R
PINE BLUFFS    FAIR      63  41  45 N10       29.91R

$$




USA.gov is the U.S. government's official web portal to all federal, state and local government web resources and services.